Home > Weather > Maputo > Past weeks

Flag for Mozambique Weather for the Past 2 Weeks in Maputo, Mozambique

Now
73 °F

Scattered clouds.


Feels Like: 76 °F
Forecast: 72 / 88 °F
Wind: 9 mph from Southwest

Location: Maputo / Mavalane

Current Time: Feb 6, 2016 at 6:10:36 AM

Latest Report: Feb 6, 2016 at 6:00 AM


Visibility: N/A

Pressure: 30.04 "Hg

Humidity: 69%

Dew point: 63 °F

Location of MaputoLocation

Historic Weather in Maputo — Graph

°F

Maputo Temperature Yesterday

Maximum temperature yesterday: 86 °F (at 11:00 AM)
Minimum temperature yesterday: 72 °F (at 5:00 AM)
Average temperature yesterday: 79 °F

High & Low Weather Summary for the Past Weeks

 TemperatureHumidityPressure
High99 °F (Jan 31, 7:00 PM)94% (Jan 25, 5:00 AM)30.12 "Hg (Jan 25, 5:00 AM)
Low70 °F (Feb 6, 5:00 AM)29% (Jan 22, 2:00 PM)29.65 "Hg (Jan 24, 5:00 PM)
Average82 °F68%29.95 "Hg
* Reported Jan 22 5:00 AM — Feb 6 5:00 AM, Maputo, Weather by CustomWeather, © 2016

Note: Actual official high and low records may vary slightly from our data, if they occured in-between our weather recording intervals... More about our weather records

Advertising

Maputo Weather History for the Previous 24 Hours

 ConditionsComfort  
Time TempWeatherWind HumidityBarometerVisibility
5:00 AM
Sat, Feb 6
70 °FPassing clouds.10 mph78%30.01 "HgN/A
4:00 AM72 °FPassing clouds.12 mph73%30.01 "HgN/A
2:00 AM72 °FPassing clouds.14 mph73%30.01 "HgN/A
1:00 AM72 °FPassing clouds.15 mph73%30.04 "HgN/A
12:00 AM73 °FPassing clouds.9 mph74%30.04 "HgN/A
11:00 PM
Fri, Feb 5
75 °FPassing clouds.12 mph69%30.04 "HgN/A
10:00 PM77 °FPassing clouds.15 mph65%30.04 "HgN/A
9:00 PM77 °FPassing clouds.17 mph69%30.01 "HgN/A
7:00 PM81 °FPassing clouds.16 mph58%29.95 "HgN/A
6:00 PM81 °FPassing clouds.13 mph54%29.95 "HgN/A
5:00 PM82 °FScattered clouds.15 mph55%29.92 "HgN/A
4:00 PM84 °FScattered clouds.15 mph51%29.92 "HgN/A
3:00 PM86 °FScattered clouds.13 mph49%29.92 "HgN/A
2:00 PM86 °FScattered clouds.14 mph46%29.95 "HgN/A
1:00 PM86 °FScattered clouds.12 mph43%29.98 "HgN/A
12:00 PM86 °FPartly sunny.12 mph43%30.01 "HgN/A
11:00 AM86 °FScattered clouds.13 mph40%30.01 "HgN/A
10:00 AM84 °FScattered clouds.16 mph43%30.01 "HgN/A
9:00 AM82 °FScattered clouds.17 mph42%30.04 "HgN/A
8:00 AM79 °FScattered clouds.15 mph48%30.04 "HgN/A
7:00 AM75 °FScattered clouds.17 mph54%30.04 "HgN/A
6:00 AM72 °FScattered clouds.14 mph69%30.01 "HgN/A
Weather by CustomWeather, © 2016

See weather overviewHow to use our weather pages